| time (UTC) | temp C | wind direction | speed KPH | gust KPH | rain 1hr cm | rain 24hr cm | rain mn cm | humidity % | barometer mb |
| 20260504190059 | 26 | 162 | 3.2 | 11.3 | 0.00 | 0.00 | 0.00 | 46 | 1015.7 |
| 20260504184559 | 26 | 209 | 1.6 | 11.3 | 0.00 | 0.00 | 0.00 | 45 | 1015.9 |
| 20260504183103 | 25 | 211 | 3.2 | 16.1 | 0.00 | 0.00 | 0.00 | 48 | 1016.1 |
| 20260504181605 | 25 | 320 | 1.6 | 14.5 | 0.00 | 0.00 | 0.00 | 43 | 1016.4 |
| 20260504180113 | 25 | 310 | 4.8 | 14.5 | 0.00 | 0.00 | 0.00 | 41 | 1016.5 |
| 20260504174556 | 24 | 240 | 3.2 | 16.1 | 0.00 | 0.00 | 0.00 | 45 | 1016.7 |
| 20260504173107 | 24 | 240 | 0.0 | 6.4 | 0.00 | 0.00 | 0.00 | 45 | 1017.0 |
| 20260504171601 | 24 | 116 | 3.2 | 11.3 | 0.00 | 0.00 | 0.00 | 44 | 1017.2 |
| 20260504081558 | 10 | 0 | 0.0 | 0.0 | 0.00 | 0.00 | 0.00 | 91 | 1017.7 |
| 20260504044558 | 12 | 0 | 0.0 | 0.0 | 0.00 | 0.00 | 0.00 | 82 | 1018.8 |
| 20260504043059 | 12 | 0 | 0.0 | 1.6 | 0.00 | 0.00 | 0.00 | 82 | 1019.0 |
| 20260504041559 | 12 | 0 | 0.0 | 0.0 | 0.00 | 0.00 | 0.00 | 82 | 1019.1 |
| 20260504040055 | 13 | 0 | 0.0 | 0.0 | 0.00 | 0.00 | 0.00 | 80 | 1019.0 |
| 20260504034606 | 13 | 0 | 0.0 | 1.6 | 0.00 | 0.00 | 0.00 | 80 | 1019.1 |
| 20260504033054 | 13 | 0 | 0.0 | 0.0 | 0.00 | 0.00 | 0.00 | 81 | 1019.3 |
| 20260504031601 | 13 | 0 | 0.0 | 0.0 | 0.00 | 0.00 | 0.00 | 81 | 1019.2 |
| 20260504030059 | 13 | 0 | 0.0 | 0.0 | 0.00 | 0.00 | 0.00 | 80 | 1019.1 |
| 20260504024601 | 13 | 0 | 0.0 | 0.0 | 0.00 | 0.00 | 0.00 | 77 | 1019.0 |
| 20260504023055 | 14 | 0 | 0.0 | 0.0 | 0.00 | 0.00 | 0.00 | 79 | 1018.9 |
| 20260504021557 | 15 | 0 | 0.0 | 0.0 | 0.00 | 0.00 | 0.00 | 77 | 1018.7 |
| 20260504020115 | 15 | 0 | 0.0 | 0.0 | 0.00 | 0.00 | 0.00 | 74 | 1018.6 |
| 20260504014602 | 15 | 0 | 0.0 | 1.6 | 0.00 | 0.00 | 0.00 | 76 | 1018.5 |
| 20260504013128 | 16 | 0 | 0.0 | 0.0 | 0.00 | 0.00 | 0.00 | 73 | 1018.3 |
| 20260504011559 | 16 | 0 | 0.0 | 0.0 | 0.00 | 0.00 | 0.00 | 71 | 1018.1 |
| 20260504010055 | 17 | 0 | 0.0 | 0.0 | 0.00 | 0.00 | 0.00 | 68 | 1018.0 |
| 20260504004558 | 18 | 0 | 0.0 | 0.0 | 0.00 | 0.00 | 0.00 | 67 | 1017.9 |
| 20260504003057 | 18 | 0 | 0.0 | 0.0 | 0.00 | 0.00 | 0.00 | 66 | 1017.8 |
| 20260504001554 | 20 | 0 | 0.0 | 1.6 | 0.00 | 0.00 | 0.00 | 65 | 1017.7 |
| 20260504000058 | 21 | 0 | 0.0 | 0.0 | 0.00 | 0.00 | 0.00 | 58 | 1017.7 |
| 20260503234555 | 22 | 0 | 0.0 | 3.2 | 0.00 | 0.00 | 0.00 | 53 | 1017.8 |
| 20260503233059 | 23 | 0 | 1.6 | 8.0 | 0.00 | 0.00 | 0.00 | 43 | 1017.9 |
| 20260503231555 | 23 | 252 | 1.6 | 9.7 | 0.00 | 0.00 | 0.00 | 41 | 1018.0 |
| 20260503224606 | 24 | 262 | 3.2 | 6.4 | 0.00 | 0.00 | 0.00 | 41 | 1017.9 |
| 20260503223054 | 24 | 318 | 3.2 | 9.7 | 0.00 | 0.00 | 0.00 | 40 | 1017.9 |
| 20260503221606 | 23 | 168 | 1.6 | 12.9 | 0.00 | 0.00 | 0.00 | 41 | 1018.0 |
| 20260503220057 | 24 | 304 | 4.8 | 14.5 | 0.00 | 0.00 | 0.00 | 40 | 1018.2 |
| 20260503214600 | 24 | 246 | 3.2 | 11.3 | 0.00 | 0.00 | 0.00 | 41 | 1018.3 |
| 20260503213103 | 24 | 290 | 4.8 | 14.5 | 0.00 | 0.00 | 0.00 | 40 | 1018.6 |
| 20260503211559 | 23 | 236 | 3.2 | 11.3 | 0.00 | 0.00 | 0.00 | 41 | 1018.7 |
| 20260503210056 | 23 | 288 | 4.8 | 16.1 | 0.00 | 0.00 | 0.00 | 43 | 1018.8 |
| 20260503204616 | 23 | 243 | 1.6 | 14.5 | 0.00 | 0.00 | 0.00 | 42 | 1019.1 |
| 20260503203057 | 23 | 261 | 6.4 | 14.5 | 0.00 | 0.00 | 0.00 | 43 | 1019.4 |
| 20260503201555 | 23 | 246 | 4.8 | 14.5 | 0.00 | 0.00 | 0.00 | 40 | 1019.5 |
| 20260503200057 | 23 | 304 | 1.6 | 9.7 | 0.00 | 0.00 | 0.00 | 40 | 1019.8 |
| 20260503194557 | 23 | 352 | 1.6 | 12.9 | 0.00 | 0.00 | 0.00 | 42 | 1020.0 |
| 20260503193113 | 23 | 302 | 3.2 | 17.7 | 0.00 | 0.00 | 0.00 | 40 | 1020.2 |
| 20260503191611 | 22 | 86 | 3.2 | 14.5 | 0.00 | 0.00 | 0.00 | 41 | 1020.6 |